Hourly Data Report for September 02, 2017

All times are specified in Local Standard Time (LST). Add 1 hour to adjust for Daylight Saving Time where and when it is observed.

EUREKA CLIMATE
NUNAVUT

79°59'21.000" N
85°56'02.000" W
10.00 m
2401199
71613
NEK

Download Data

Hourly Data (September 2017)
Hourly Data Report for September 2, 2017
Temp Definition
°C
Dew Point Temp Definition
°C
Rel Hum Definition
%
Wind Dir Definition
10's deg

Wind Spd Definition
km/h
Visibility Definition
km
Stn Press Definition
kPa
Hmdx Definition


Wind Chill Definition


Weather Definition


TIME
00:00 -3.9 -7.3 78 35 11   100.73   -8 LegendNANA
01:00 -4.1 -7.7 76 28 11   100.73   -9 LegendNANA
02:00 -4.3 -7.7 77 34 5   100.75   -6 LegendNANA
03:00 -4.2 -7.3 79 29 7   100.78   -7 LegendNANA
04:00 -4.2 -7.4 79 19 8   100.76   -8 LegendNANA
05:00 -4.3 -7.8 77 19 5   100.78   -6 LegendNANA
06:00 -4.1 -7.8 75 20 4   100.78   -6 LegendNANA
07:00 -4.0 -7.7 75 12 6   100.75   -7 LegendNANA
08:00 -3.7 -7.3 76 11 5   100.73   -6 LegendNANA
09:00 -3.3 -6.6 78 11 8   100.69   -7 LegendNANA
10:00 -2.8 -6.1 78 11 10   100.66   -7 LegendNANA
11:00 -2.7 -5.7 80 13 6   100.62   -5 LegendNANA
12:00 -2.7 -6.0 78 28 3   100.59   -4 LegendNANA
13:00 -2.5 -5.2 81 12 2   100.58   -3 LegendNANA
14:00 -2.8 -4.3 89 16 2   100.57   -4 LegendNANA
15:00 -2.9 -3.6 95 13 4   100.57   -4 LegendNANA
16:00 -2.9 -3.6 95 14 2   100.56   -4 LegendNANA
17:00 -2.8 -3.5 95 0 1   100.55   -3 LegendNANA
18:00 -3.2 -3.9 95 4 1   100.54   -4 LegendNANA
19:00 -3.5 -3.9 97 1 10   100.55   -7 LegendNANA
20:00 -3.8 -4.5 95 36 10   100.55   -8 LegendNANA
21:00 -4.2 -5.1 93 36 11   100.55   -9 LegendNANA
22:00 -3.8 -5.0 91 35 16   100.55   -9 LegendNANA
23:00 -3.9 -5.1 91 35 17   100.58   -10 LegendNANA

Notes on Data Quality.

Legend

  • E = Estimated
  • M = Missing
  • NA = Not Available
  • ‡ = Partner data that is not subject to review by the National Climate Archives
Date modified: